Regional Weather Roundup
Issued by NWS

Home | Current Version | Previous Version | Graphics & Text | Print | Product List | Glossary Off
Versions: 1 2 3 4 5 6 7 8 9 10 11 12 13 14 15 16 17 18 19 20 21 22 23 24 25 26 27 28 29 30 31 32 33 34 35 36 37 38 39 40 41 42 43 44 45 46 47 48 49 50

000
ASUS43 KMKX 010821
RWRWI

WISCONSIN REGIONAL WEATHER ROUNDUP
NATIONAL WEATHER SERVICE MILWAUKEE/SULLIVAN WI
300 AM CDT SAT AUG 01 2015

NOTE: "FAIR" INDICATES FEW OR NO CLOUDS BELOW 12,000 FEET WITH NO
SIGNIFICANT WEATHER AND/OR OBSTRUCTIONS TO VISIBILITY.

WIZ001-002-006>008-014>016-023>028-010900-
NORTHWEST WISCONSIN

CITY           SKY/WX    TMP DP  RH WIND       PRES   REMARKS
SUPERIOR ARPT  CLEAR     57  50  79 W6        29.94S
ASHLAND        CLEAR     55  50  83 W5        29.92S
HAYWARD        CLEAR     50  47  89 CALM      29.96F
SIREN          CLEAR     57  50  77 CALM      29.98F
CUMBERLAND     CLEAR     55  50  82 NW3       29.98F
RICE LAKE      CLEAR     56  52  89 CALM      29.99F
CHETEK         CLEAR     55  53  93 CALM      29.98F
LADYSMITH      CLEAR     57  52  82 CALM      29.98S
EAU CLAIRE     MOCLDY    60  54  80 SW6       29.97F
MENOMONIE      MOCLDY    65  56  72 W5        29.99S
NEW RICHMOND   MOCLDY    64  57  78 W5        29.99F
OSCEOLA        MOCLDY    60  60 100 CALM      30.01S
$$

WIZ003>005-009-010-017-018-010900-
NORTH CENTRAL WISCONSIN

CITY           SKY/WX    TMP DP  RH WIND       PRES   REMARKS
MANITOWISH WTR CLEAR     50  50 100 CALM      29.93S FOG
ARBOR VITAE    CLEAR     55  52  92 CALM      29.93S
WOODRUFF       CLEAR     55  52  92 CALM      29.93S
RHINELANDER    CLEAR     52  50  93 W8        29.95S
EAGLE RIVER    CLEAR     52  52 100 SW7       29.92F FOG
LAND O LAKES   CLEAR     50  49  99 CALM      29.93S
PHILLIPS       CLEAR     55  51  87 CALM      29.95S
TOMAHAWK       CLEAR     51  49  93 CALM      29.95S
MEDFORD        CLEAR     58  51  79 W5        29.97S
MERRILL        NOT AVBL
$$

WIZ029-030-035-036-043>047-010900-
CENTRAL WISCONSIN

CITY           SKY/WX    TMP DP  RH WIND       PRES   REMARKS
WAUSAU         PTCLDY    61  53  75 NW10      29.94F
MOSINEE        CLEAR     57  52  82 W6        29.97S
MARSHFIELD     PTCLDY    59  49  69 W6        29.97F
STEVENS POINT  CLOUDY    62  51  66 W8        29.97S
WAUPACA        CLEAR     64  53  68 W6        29.95S
WAUTOMA        CLEAR     56  51  83 CALM      29.97F
WISC RAPIDS    PTCLDY    59  51  75 W6        29.98F
CAMP DOUGLAS   CLEAR     54  54 100 W6        29.97F
$$

WIZ011>013-019>022-031-037>040-048>050-010900-
NORTHEAST WISCONSIN

CITY           SKY/WX    TMP DP  RH WIND       PRES   REMARKS
ANTIGO         CLEAR     55  53  93 W6        29.95S
SHAWANO        CLEAR     62  55  79 W5        29.92F
OCONTO         PTCLDY    55  55 100 CALM      29.89S
STURGEON BAY   MOCLDY    63  54  72 W7        29.92S
GREEN BAY      CLEAR     60  55  83 W7        29.92S
MANITOWOC      CLEAR     64  56  75 MISG      29.92F
APPLETON       CLEAR     59  50  72 W8        29.94S
CLINTONVILLE   PTCLDY    61  52  72 W8        29.93S
OSHKOSH        CLEAR     62  51  67 W6        29.94F
$$

WIZ032>034-041-042-053>061-010900-
SOUTHWEST WISCONSIN

CITY           SKY/WX    TMP DP  RH WIND       PRES   REMARKS
LA CROSSE      PTCLDY    63  57  81 SE5       29.99F
SPARTA         CLEAR     51  49  93 CALM      30.00F
VIROQUA        CLEAR     60  56  86 W6        30.02F
BOSCOBEL       CLEAR     59  56  89 SW5       30.01F
PRAIRIE DU CHI CLEAR     62  56  81 CALM      30.01F
PLATTEVILLE    CLEAR     61  58  89 W5        30.02F
$$

WIZ056-057-062-063-064-067-068-010900-
SOUTH CENTRAL WISCONSIN

CITY           SKY/WX    TMP DP  RH WIND       PRES   REMARKS
REEDSBURG      PTCLDY    55  53  95 CALM      29.99S
BARABOO/DELLS  CLEAR     56  50  80 CALM      29.99S
LONE ROCK      PTCLDY    54  52  93 CALM      30.01F
MINERAL POINT  CLEAR     61  55  82 W3        30.02F
MADISON        CLEAR     64  52  64 W6        29.98F
MIDDLETON      CLEAR     58  53  83 CALM      30.00S
WATERTOWN      CLEAR     56  55  95 CALM      29.97F
MONROE         CLEAR     61  54  77 W13       30.01S
JANESVILLE     CLEAR     59  52  77 W5        29.99F
$$

WIZ051-052-058>065-066-070>072-010900-
SOUTHEAST WISCONSIN

CITY           SKY/WX    TMP DP  RH WIND       PRES   REMARKS
MILWAUKEE      CLEAR     69  50  50 W7        29.96S
WAUKESHA       CLEAR     59  50  72 W7        29.98S
MILWAUKEE/TIMM CLEAR     63  48  59 W6        29.97S
RACINE         CLEAR     63  51  65 W7        29.98S
BURLINGTON     CLEAR     56  51  82 CALM      29.98S
KENOSHA        CLEAR     59  51  75 W7        29.97F
FOND DU LAC    CLEAR     61  52  72 SW8       29.95F
SHEBOYGAN      CLEAR     62  54  74 W8        29.93F
WEST BEND      CLEAR     63  50  63 W7        29.96S
JUNEAU         CLEAR     56  52  85 CALM      29.98S
$$

LSZ147-162-010900-
LAKE SUPERIOR

STATION/POSITION TIME  TEMP    WIND        PRES    WAVE
                       AIR SEA DIR/SP/G            HT/PER
                 (UTC) (F)     (DEG/KT/KT) (MB)    (FT/S)
W MID LAKE BUOY  0750   58 53  290/ 12/ 14 1010.8F   1/ 3
DEVILS ISLAND    0800   60     240/ 10/ 11 1012.1F
PORT WING        0700   66     240/ 10/ 14 1013.2F
SAXON HARBOR     0700   59                 1012.2
$$

LMZ867-665-643>646-010900-
LAKE MICHIGAN

STATION/POSITION TIME  TEMP    WIND        PRES    WAVE
                       AIR SEA DIR/SP/G            HT/PER
                 (UTC) (F)     (DEG/KT/KT) (MB)    (FT/S)
CHAMBERS ISLAND  0700   67     220/  6/ 10 1011.9F
S GREEN BAY BUOY 0800   65 70  250/ 10/ 12 1013.6F
N MID LAKE BUOY  0750   68 68  260/ 12/ 14 1010.6F   1/ 3
NORTHPORT PIER   0700   68     290/  7/ 11 1011.5S
SISTER BAY       0729   69     320/ 18/ 21   N/A
ALGOMA LAKESHORE 0742          240/  1/  4   N/A
KEWAUNEE LAKESHO 0700   63     300/  4/  5 1012.3F
SHEBOYGAN LAKESH 0800   67     260/ 10/ 12 1013.3F
PORT WASHINGTON  0700   67     270/  5/  7 1014.6F
ATWATER BUOY     0800   68 67  260/ 12/ 14 1015.5F
MILWAUKEE LAKESH 0800   69     290/  8/ 11   N/A
KENOSHA   LAKESH 0800   68     270/  7/ 13 1014.6S
$$

TC  - TEMPERATURE IN CELSIUS
VSB - VISIBILITY IN STATUTE MILES
WCI - WIND CHILL INDEX
HX  - HEAT INDEX




USA.gov is the U.S. government's official web portal to all federal, state and local government web resources and services.